Regional Weather Roundup
Issued by NWS

Home | Current Version | Previous Version | Graphics & Text | Print | Product List | Glossary On
Versions: 1 2 3 4 5 6 7 8 9 10 11 12 13 14 15 16 17 18 19 20 21 22 23 24 25 26 27 28 29 30 31 32 33 34 35 36 37 38 39 40 41 42 43 44 45 46 47 48 49 50
000
ASUS43 KBIS 191810
RWRND

NORTH DAKOTA REGIONAL WEATHER ROUNDUP
NATIONAL WEATHER SERVICE BISMARCK ND
1200 PM CST FRI DEC 19 2014

NOTE: "FAIR" INDICATES FEW OR NO CLOUDS BELOW 12,000 FEET WITH NO
SIGNIFICANT WEATHER AND/OR OBSTRUCTIONS TO VISIBILITY.


NDZ001>003-009>011-017-191900-
NORTHWEST NORTH DAKOTA

CITY           SKY/WX    TMP DP  RH WIND       PRES   REMARKS
WILLISTON      PTSUNNY   22  21  96 S3        29.92F FOG
6HR MIN TEMP:  20; 6HR MAX TEMP:  23;

MINOT          CLOUDY    27  25  92 SW5       29.93S FOG
MINOT AFB      CLOUDY    27  27 100 W2        29.93F
$$

NDZ018>021-031>035-040>046-191900-
SOUTHWEST NORTH DAKOTA

CITY           SKY/WX    TMP DP  RH WIND       PRES   REMARKS
BISMARCK       CLOUDY    28  24  85 CALM      29.95F
6HR MIN TEMP:  21; 6HR MAX TEMP:  28;

DICKINSON      SUNNY     38  27  64 W9        29.90F
GARRISON         N/A     25  24  96 CALM      29.93F
6HR MIN TEMP:  17; 6HR MAX TEMP:  25;

HETTINGER ARPT MOSUNNY   37  26  64 W9        29.94F
$$

NDZ004>008-012>016-024-026-027-054-191900-
NORTHEAST NORTH DAKOTA

CITY           SKY/WX    TMP DP  RH WIND       PRES   REMARKS
GRAND FORKS    CLOUDY    26  25  96 S10       30.04F FOG     WCI  16
GRND FRKS AFB  CLOUDY    26  26 100 S9        30.04F FOG     WCI  17
DEVILS LAKE    CLOUDY    27  19  74 S6        29.94F WCI  20
$$

NDZ022-023-025-028>030-036>039-047>053-191900-
SOUTHEAST NORTH DAKOTA

CITY           SKY/WX    TMP DP  RH WIND       PRES   REMARKS
FARGO          CLOUDY    29  26  89 S14       30.06F FOG     WCI  18
6HR MIN TEMP:  24; 6HR MAX TEMP:  29;

JAMESTOWN      CLOUDY    28  26  92 S9        29.96F WCI  19
$$




USA.gov is the U.S. government's official web portal to all federal, state and local government web resources and services.